Dewpoint
65 66 67 67 68 68 69 69 69 70 70 70 70 69 70 70 70 70 71 71 71 71 71 70 70 70 70 69 69 70 71 71 72 72 72 72 72 72 72 72 72 73 74 73 73 74 74 74 73 73 74 74 71 70 70 71 72 71 72 74 70 69 70 71 72 71 68 69 70 70 70 71 73 73 73 73 73 73 73 73 74 74 74 74 75
67 66 67 68 68 69 68 69 70 69 69 70 69 69 70 70 70 70 71 71 71 70 70 70 70 69 69 69 69 69 70 71 71 71 71 71 72 72 72 71 72 72 74 74 74 73 74 74 74 73 74 74 72 72 71 75 74 72 71 70 71 68 69 70 71 69 68 66 67 68 71 70 70 72 72 73 73 73 73 74 74 74 74 75 75
66 66 67 67 68 68 68 68 68 69 70 69 69 69 69 69 70 70 71 71 71 71 71 70 70 70 69 69 69 70 71 71 70 71 71 70 70 71 71 71 72 72 73 75 74 73 73 74 74 73 73 76 74 74 74 74 71 70 70 68 68 69 70 71 71 69 66 69 68 68 66 66 69 69 70 72 73 73 74 74 74 74 75 75 75
65 65 66 66 67 68 68 68 68 68 69 69 69 68 68 70 69 70 70 71 71 71 72 70 70 70 70 70 70 71 71 72 72 71 71 70 69 69 70 71 72 72 72 73 74 74 74 73 73 72 73 74 72 71 72 71 72 71 70 71 71 67 67 68 71 70 69 68 67 66 65 63 64 67 66 69 73 73 73 74 74 74 74 74 74
64 65 66 66 67 67 67 68 68 68 68 68 68 68 68 68 69 70 70 70 71 72 72 71 71 70 70 71 72 71 72 71 70 70 70 70 70 69 68 70 71 71 72 73 74 74 74 73 73 72 72 73 73 71 70 69 70 71 70 72 70 68 67 67 69 70 69 69 69 67 66 65 64 65 66 70 71 73 73 73 74 74 73 73 73
64 64 65 66 66 67 67 68 68 68 68 68 68 68 67 68 69 70 70 70 70 71 71 71 71 69 69 69 69 69 69 69 69 69 69 68 68 69 68 68 69 71 72 72 73 75 74 73 73 73 72 73 74 71 71 71 71 70 70 70 69 69 69 68 67 72 69 70 70 69 68 66 65 66 65 67 70 73 73 74 74 74 73 73 73
65 65 65 65 66 66 67 67 68 68 68 68 68 68 67 68 68 69 70 70 70 71 71 71 70 69 69 68 68 68 68 69 70 70 69 69 69 69 69 69 69 70 71 72 73 74 74 74 74 73 73 72 74 73 71 70 70 70 72 71 70 72 70 68 67 66 71 70 70 69 70 71 68 67 67 67 67 70 71 72 73 73 73 72 72
64 64 65 65 66 66 66 67 68 69 69 69 68 68 67 68 68 69 70 70 70 70 71 71 70 69 69 69 69 69 68 69 69 70 69 70 69 68 69 69 70 71 71 72 73 74 75 74 74 74 73 73 73 74 72 71 72 72 74 72 72 73 70 69 68 68 68 69 70 69 70 69 70 69 67 66 68 66 69 71 72 72 73 72 72
64 64 64 65 65 66 66 66 69 69 69 69 68 67 67 68 69 69 69 70 70 70 71 71 71 69 69 68 68 69 69 69 70 71 71 71 69 69 69 69 71 72 72 72 73 74 75 75 74 74 73 73 75 74 73 72 72 72 73 73 74 75 72 70 71 71 67 68 69 70 71 72 72 73 72 69 69 68 67 68 70 70 71 72 72
64 64 64 65 65 66 66 67 68 67 67 68 68 68 67 67 68 69 69 70 70 70 71 70 70 71 69 68 68 69 70 70 70 70 70 70 69 69 70 71 71 72 73 73 73 74 74 75 74 73 73 73 74 73 73 73 73 73 72 72 73 73 74 73 70 70 69 70 69 71 71 71 70 70 71 71 70 69 68 68 69 67 68 70 72
63 64 64 64 65 66 66 67 67 67 67 68 68 67 67 67 67 68 69 70 70 70 70 70 70 70 69 69 68 68 69 69 69 69 70 69 69 69 70 70 71 71 72 73 73 73 74 75 74 74 73 75 75 74 73 72 72 72 72 72 74 73 73 75 74 73 73 72 70 71 71 69 70 69 70 70 69 69 68 68 69 69 67 68 71
63 63 64 64 65 66 66 66 67 67 67 68 67 67 67 67 67 68 69 69 70 70 70 70 70 70 69 69 68 68 69 69 69 68 69 69 68 68 70 70 71 71 72 72 73 72 73 73 74 74 75 74 74 74 73 73 73 73 72 73 73 74 74 75 73 72 72 72 71 70 71 70 71 70 70 71 70 70 70 68 68 69 70 69 68
63 63 64 64 65 66 66 66 67 67 67 67 67 67 67 67 67 68 68 69 69 70 70 70 70 70 70 69 69 69 69 69 69 68 69 69 69 68 69 69 70 70 71 71 72 72 73 73 73 73 74 74 74 74 74 74 74 73 72 72 73 74 73 74 72 71 71 71 70 71 70 69 70 71 71 71 71 71 70 70 68 67 67 69 69
63 64 64 64 65 66 66 66 67 67 67 68 68 68 67 67 67 67 68 69 69 69 70 70 70 70 70 69 69 70 69 69 69 68 68 69 69 69 68 68 69 69 70 71 71 71 72 72 73 73 74 74 75 74 74 74 74 73 73 72 72 73 73 73 72 72 72 71 71 71 70 70 70 71 72 71 71 70 69 68 68 68 67 68 70
64 64 64 64 65 65 66 67 67 67 68 67 68 69 69 68 67 68 67 68 69 69 69 70 69 70 70 70 69 69 69 70 69 69 69 69 69 69 69 69 68 69 70 71 72 72 72 72 72 73 73 74 74 75 75 75 75 75 74 73 73 72 73 73 72 72 71 72 72 72 71 70 70 71 70 70 71 69 68 69 68 66 65 65 68
64 64 64 65 65 65 66 67 67 67 67 67 68 69 69 68 68 68 67 68 69 70 69 69 69 70 70 70 70 70 70 70 70 71 70 70 70 70 69 70 69 70 70 71 71 72 71 71 72 72 73 73 74 74 75 74 74 74 74 74 73 73 73 73 73 72 72 72 71 72 72 70 71 70 70 70 72 71 70 70 69 68 66 65 65
64 64 64 65 65 65 66 67 67 67 66 66 67 68 69 69 68 68 68 68 68 69 69 69 69 69 70 70 70 70 70 70 69 70 70 70 70 70 70 70 70 71 71 71 71 72 72 72 71 72 72 73 73 74 73 74 74 74 73 74 73 73 74 73 73 73 73 73 73 72 72 72 72 72 71 71 71 72 70 69 68 67 68 66 66
65 65 65 65 65 65 66 66 67 67 66 66 67 69 69 69 69 68 69 68 69 69 69 69 69 69 69 70 70 70 70 70 70 70 71 71 71 71 71 71 71 71 71 71 72 71 72 73 72 72 72 73 74 73 74 74 74 74 74 74 73 74 74 75 74 73 73 73 73 72 72 72 72 72 71 71 71 72 70 70 70 69 70 68 67
63 64 64 65 65 65 65 66 66 67 68 67 67 68 69 69 69 69 69 69 69 69 70 70 69 69 69 70 70 70 70 70 71 71 71 70 70 71 71 71 71 72 73 73 73 72 73 72 73 72 72 72 72 73 74 74 74 74 74 74 74 75 74 74 74 74 73 73 73 73 73 72 73 72 71 70 70 70 70 70 70 70 69 69 69
62 63 64 65 65 66 66 66 66 67 68 68 68 69 69 69 69 70 70 70 71 70 70 70 70 69 69 70 71 71 71 71 71 71 71 70 70 71 71 71 71 72 72 72 73 73 73 73 73 73 72 72 72 73 74 74 74 74 74 73 74 74 74 74 74 74 73 74 74 73 73 73 73 72 71 71 71 71 70 69 69 69 70 69 70
60 62 63 64 65 65 66 66 67 67 68 68 68 68 68 69 70 70 69 68 69 70 71 71 71 70 70 70 71 71 71 71 71 72 71 71 71 72 71 72 73 72 73 72 73 73 74 74 73 74 73 74 74 74 74 74 74 74 74 74 74 74 74 74 74 74 73 73 74 73 73 73 73 72 72 72 71 71 71 70 69 69 68 69 69
63 59 62 64 65 65 66 66 68 68 68 68 68 68 68 69 70 70 70 70 70 71 71 71 71 72 71 70 71 71 71 71 72 72 72 72 71 72 72 73 72 73 73 72 73 73 73 74 73 73 73 73 74 74 74 75 74 74 74 74 74 74 74 74 74 74 74 73 74 73 73 72 73 72 72 71 71 71 71 70 70 68 68 68 69
65 65 61 64 65 66 66 66 67 68 69 69 68 68 68 69 70 70 70 70 70 71 71 71 71 71 71 71 72 72 72 72 72 72 72 72 72 72 73 72 72 73 74 73 73 73 73 74 74 74 74 73 74 74 74 74 74 74 74 74 74 74 74 73 73 73 73 73 73 73 73 73 72 72 72 71 71 71 71 70 70 70 70 69 69
64 66 66 65 65 66 66 66 67 68 69 69 69 69 68 69 69 70 70 70 71 71 71 71 71 71 71 72 72 73 73 73 72 72 72 73 73 73 73 73 73 73 73 74 73 74 74 74 74 74 73 73 74 73 73 73 74 74 74 74 74 74 74 73 73 73 73 73 73 73 73 73 73 72 72 72 71 71 71 71 70 71 71 70 71
63 64 65 66 66 66 66 66 67 68 69 69 70 70 69 69 69 69 70 71 71 72 71 71 71 71 71 72 71 71 71 72 73 73 73 73 73 73 73 73 73 73 73 73 75 74 74 74 73 73 74 74 74 73 73 73 73 73 73 73 72 72 72 72 72 74 74 74 73 73 73 73 72 72 72 71 71 71 71 71 71 72 72 72 71
63 64 64 65 65 65 66 66 67 67 68 68 69 70 70 70 70 70 70 70 71 71 71 71 71 70 70 70 71 71 71 71 73 73 73 73 73 73 73 74 73 74 74 74 73 73 74 74 74 74 74 74 74 74 73 73 73 73 72 71 71 71 71 71 71 73 74 74 74 73 73 73 72 72 71 72 72 71 72 71 71 72 72 73 73
63 64 64 64 65 65 66 66 66 67 67 68 69 69 70 71 71 70 70 70 70 71 71 70 70 70 70 70 70 71 72 73 73 72 71 71 71 72 72 72 73 72 71 72 72 72 73 74 74 73 73 73 73 73 73 73 71 70 71 71 71 71 71 71 71 72 73 74 74 74 74 74 73 73 73 72 72 72 71 71 72 72 73 73 72
62 63 64 64 64 65 66 66 66 67 67 67 68 69 69 70 69 67 68 70 70 71 71 70 70 70 70 70 70 71 71 71 70 70 70 71 71 71 71 72 72 72 72 72 72 73 74 74 73 73 73 73 73 72 72 72 72 72 72 71 71 71 71 72 72 72 73 73 74 74 74 74 74 74 73 72 72 71 72 71 72 73 73 73 73
61 62 63 64 64 64 65 66 67 67 67 67 68 68 69 69 68 67 67 68 70 70 70 71 71 71 71 70 70 71 70 70 70 70 70 70 70 70 70 71 72 72 72 72 72 72 72 72 72 72 72 72 72 72 72 72 72 72 71 71 71 72 72 71 71 71 72 73 74 74 74 74 74 74 74 74 74 73 72 72 73 73 73 73 72
61 62 62 63 64 64 64 65 66 67 67 67 67 68 68 68 68 68 68 69 69 70 70 70 70 71 71 70 70 70 70 70 70 70 70 70 70 69 70 70 70 71 70 71 71 71 71 71 71 71 72 72 72 72 73 74 74 72 71 71 72 72 71 71 72 73 73 73 74 74 74 75 74 73 74 74 74 73 73 73 74 73 73 71 71
61 62 62 63 63 64 64 65 65 65 66 67 67 68 68 67 68 69 69 69 70 70 69 68 68 70 69 70 69 69 69 69 69 69 69 70 69 69 69 69 70 70 69 70 71 70 70 71 72 72 72 72 72 72 73 71 71 73 72 72 71 71 70 72 72 72 72 72 73 73 73 73 74 73 74 74 74 74 73 73 73 73 73 72 70
61 62 62 63 63 64 64 65 65 65 66 67 67 67 68 68 68 70 70 69 69 69 68 67 67 68 68 68 69 69 69 69 69 69 69 69 70 69 69 69 69 69 69 70 70 71 71 72 72 72 71 71 71 72 69 69 70 70 72 72 71 70 71 71 71 72 71 72 72 72 72 73 74 74 74 75 74 73 73 73 73 72 71 72 72
60 62 63 63 63 64 65 65 65 66 66 66 67 68 68 68 70 70 71 70 70 69 68 67 67 67 67 68 70 70 70 69 69 70 70 70 70 69 69 69 69 70 71 71 71 71 72 72 71 71 70 70 71 71 68 68 69 69 70 72 71 71 71 71 71 71 71 71 71 72 72 72 72 74 74 75 75 75 73 73 73 72 72 72 71
60 62 63 63 64 64 65 65 66 66 67 67 67 68 69 70 70 71 71 71 71 70 67 67 67 67 69 70 71 70 70 69 69 69 69 70 70 69 69 70 70 70 71 71 71 71 71 70 70 70 70 71 70 70 67 67 67 67 68 70 71 71 71 70 71 71 70 71 71 71 71 72 72 73 74 74 74 73 73 73 73 72 71 73 72
60 62 63 64 64 65 65 65 66 67 68 68 67 67 70 70 70 70 71 71 71 71 70 69 69 70 71 71 71 71 70 69 69 68 68 69 70 69 69 69 70 70 70 70 70 70 70 70 71 71 71 70 69 65 65 65 65 65 67 70 69 69 69 69 68 68 69 69 70 71 72 72 72 72 74 74 73 72 72 72 71 71 71 72 72
60 62 63 64 65 65 65 65 67 67 67 68 67 67 69 70 70 70 71 71 71 71 71 71 71 71 71 71 71 70 70 69 68 68 69 69 69 69 69 70 70 70 70 70 70 70 70 70 71 71 69 67 64 62 63 63 63 64 67 66 66 66 66 66 66 67 68 70 71 71 71 72 72 72 73 73 74 73 71 71 71 71 71 71 72
61 63 64 65 66 66 66 67 67 67 67 68 68 68 69 70 70 70 71 71 71 71 71 71 72 71 71 70 71 71 71 71 70 69 69 70 70 69 69 70 70 70 70 70 70 70 71 71 70 69 67 65 63 62 61 62 62 63 65 64 65 65 65 66 66 66 68 70 71 71 72 72 71 70 68 63 67 73 71 71 71 70 69 69 71
61 64 64 65 66 66 67 67 67 67 67 68 68 68 69 70 70 70 71 71 71 71 71 71 72 72 71 71 71 71 71 71 71 70 70 70 70 70 70 70 69 69 69 69 70 70 70 70 70 69 66 65 62 62 59 60 62 63 65 64 65 65 65 65 65 66 67 69 69 71 71 70 69 67 62 61 67 72 70 69 69 68 68 68 68
59 63 64 65 66 66 67 67 66 66 67 68 67 68 68 69 70 68 67 69 70 70 70 70 71 72 72 72 72 72 71 71 71 71 71 71 71 71 70 70 69 69 68 68 69 69 70 70 70 68 69 64 62 62 58 59 60 62 65 64 65 64 64 64 64 66 66 67 67 69 70 69 66 62 58 59 63 69 68 67 67 67 66 66 66
57 61 65 67 66 66 65 65 65 66 67 67 67 67 68 68 68 67 66 66 68 69 69 71 72 72 72 72 72 72 72 72 71 71 71 71 71 71 70 69 67 66 67 69 70 69 69 68 69 69 69 64 63 62 61 57 58 60 62 64 64 64 64 64 64 65 65 65 65 65 65 60 59 58 56 56 58 63 67 67 67 66 66 65 66
56 60 67 66 65 65 64 64 65 65 67 67 67 67 67 67 68 69 69 70 69 70 70 71 72 71 71 71 72 72 72 72 72 71 71 70 70 68 67 67 66 66 67 67 68 68 67 67 68 67 65 64 63 63 62 55 56 58 61 63 63 64 62 63 65 65 65 64 64 63 63 60 57 57 55 54 54 59 64 66 66 66 66 66 66
59 62 65 65 65 65 64 65 65 65 66 67 67 67 66 67 67 66 67 68 68 69 70 70 70 71 71 71 71 72 72 72 72 71 70 68 67 67 67 66 66 66 66 66 67 67 66 66 66 65 64 63 65 65 62 56 54 54 57 61 63 63 63 63 65 65 65 65 64 62 63 61 57 56 55 52 53 57 61 65 65 60 58 60 65
55 57 62 64 64 64 64 64 65 65 66 67 67 66 66 66 65 66 67 67 68 68 69 70 71 71 71 71 71 72 71 71 71 70 68 66 66 66 66 66 66 65 65 65 66 66 66 65 65 64 64 64 64 67 64 61 55 53 54 57 59 63 61 64 65 65 66 65 63 63 64 61 55 52 51 53 53 55 61 64 56 56 57 58 62
53 56 59 64 63 64 63 64 65 65 66 66 67 66 66 66 65 66 67 68 68 68 68 69 71 70 70 70 71 71 71 71 70 69 67 66 65 65 65 66 65 65 65 65 65 65 65 65 65 64 64 64 64 64 65 65 60 55 53 54 54 56 59 62 65 65 64 62 62 62 62 54 51 49 50 52 54 58 62 56 54 56 58 62 65
54 55 59 61 62 63 64 64 65 65 66 66 67 66 66 65 65 66 66 66 67 68 68 69 69 69 70 70 70 69 69 69 69 68 67 65 65 65 64 64 65 65 65 64 64 64 64 64 64 64 64 64 63 64 64 65 63 59 55 53 54 55 56 56 63 65 64 62 59 56 52 51 51 50 51 54 56 61 58 56 56 58 65 66 66
55 56 56 59 61 62 63 63 64 66 66 67 67 67 65 66 66 66 66 66 67 68 68 68 68 68 69 69 68 68 68 68 68 68 67 66 65 65 65 64 64 64 65 64 64 64 64 63 63 63 63 63 64 64 63 63 65 65 61 57 54 55 62 62 65 64 64 61 55 54 53 53 53 55 61 64 65 66 64 65 63 65 64 64 64
55 56 58 58 59 60 61 63 63 64 65 66 66 67 67 66 66 66 66 66 67 67 68 68 68 68 68 69 68 67 67 66 66 66 66 66 65 65 65 64 64 64 64 64 64 64 63 63 63 63 63 63 63 63 63 63 63 64 63 60 59 59 62 65 65 65 64 62 60 59 61 59 61 63 64 65 65 65 66 65 64 64 65 65 65
56 56 58 58 58 58 60 62 63 63 64 66 66 66 67 66 67 67 67 66 67 67 66 66 67 67 68 68 68 70 67 66 66 65 65 65 65 65 64 64 63 63 63 63 64 64 63 63 63 63 63 63 63 63 63 63 63 63 63 62 60 60 61 62 63 62 60 61 63 65 64 65 65 64 63 64 64 65 66 65 64 63 63 64 65
55 55 57 56 57 58 60 62 63 64 64 64 65 65 66 66 66 67 66 66 66 66 66 65 66 67 67 68 68 68 66 66 65 65 64 65 65 64 64 63 62 63 63 63 63 63 64 63 63 63 63 62 62 63 64 60 64 59 63 63 62 61 61 61 62 59 61 61 63 63 63 62 63 63 63 63 62 63 64 62 63 62 62 62 62
55 56 56 55 58 59 60 62 63 64 64 64 65 65 66 66 66 66 66 66 66 66 65 65 66 66 67 67 67 67 66 66 65 63 62 60 56 51 57 63 62 61 59 58 59 63 63 62 63 63 63 63 63 64 55 54 53 52 52 53 57 56 55 60 59 52 60 60 60 59 61 61 62 61 61 62 62 62 63 63 62 62 62 62 63
55 55 56 56 57 60 61 63 64 65 65 65 64 65 65 65 66 66 66 66 65 65 66 65 66 66 67 67 67 67 66 66 65 64 64 62 60 57 44 49 57 58 51 46 48 52 54 58 63 63 61 58 57 53 48 47 48 48 47 47 47 48 48 51 51 59 60 59 58 59 60 61 62 61 61 61 62 61 62 63 62 62 62 62 62